Tiempo cada hora Golaszew

Hoy, 4 Agosto, Miércoles

Tiempo Temperatura Precipitaciones Viento Presión Humedad
00:00 +18°C° 0.1 mm 1 mps 752 mmHg 75%
01:00 +18°C° 0.1 mm 1 mps 752 mmHg 78%
02:00 +16°C° 0.1 mm 1 mps 752 mmHg 81%
03:00 +16°C° 0.1 mm 1 mps 752 mmHg 83%
04:00 +15°C° 0.1 mm 1 mps 752 mmHg 86%
05:00 +16°C° 0.2 mm 1 mps 752 mmHg 84%
06:00 +18°C° 0.2 mm 1 mps 752 mmHg 82%
07:00 +18°C° 0.2 mm 2 mps 752 mmHg 81%
08:00 +18°C° 0.3 mm 2 mps 752 mmHg 82%
09:00 +18°C° 0.3 mm 2 mps 753 mmHg 84%
10:00 +18°C° 0.3 mm 2 mps 753 mmHg 86%
11:00 +17°C° 0.8 mm 2 mps 753 mmHg 87%
12:00 +17°C° 0.8 mm 2 mps 753 mmHg 89%
13:00 +17°C° 0.8 mm 2 mps 752 mmHg 90%
14:00 +17°C° 0.4 mm 2 mps 752 mmHg 89%
15:00 +17°C° 0.4 mm 2 mps 752 mmHg 87%
16:00 +17°C° 0.4 mm 2 mps 752 mmHg 86%
17:00 +18°C° 0 mm 1 mps 752 mmHg 86%
18:00 +18°C° 0 mm 1 mps 752 mmHg 86%
19:00 +18°C° 0 mm 1 mps 752 mmHg 87%
20:00 +16°C° 0 mm 1 mps 752 mmHg 89%
21:00 +16°C° 0 mm 1 mps 752 mmHg 90%
22:00 +15°C° 0 mm 1 mps 752 mmHg 92%
23:00 +15°C° 0 mm 1 mps 752 mmHg 93%

Mañana, 5 Agosto, Jueves

Tiempo Temperatura Precipitaciones Viento Presión Humedad
00:00 +14°C° 0 mm 1 mps 752 mmHg 94%
01:00 +14°C° 0 mm 1 mps 752 mmHg 94%
02:00 +14°C° 0 mm 1 mps 752 mmHg 95%
03:00 +14°C° 0 mm 1 mps 751 mmHg 95%
04:00 +14°C° 0 mm 1 mps 751 mmHg 95%
05:00 +15°C° 0 mm 2 mps 751 mmHg 92%
06:00 +16°C° 0 mm 2 mps 751 mmHg 88%
07:00 +17°C° 0 mm 2 mps 751 mmHg 85%
08:00 +18°C° 0 mm 2 mps 751 mmHg 78%
09:00 +19°C° 0 mm 3 mps 751 mmHg 71%
10:00 +21°C° 0 mm 3 mps 751 mmHg 63%
11:00 +22°C° 0 mm 3 mps 750 mmHg 60%
12:00 +22°C° 0 mm 3 mps 750 mmHg 56%
13:00 +24°C° 0 mm 3 mps 750 mmHg 52%
14:00 +22°C° 0 mm 3 mps 749 mmHg 57%
15:00 +22°C° 0 mm 3 mps 749 mmHg 62%
16:00 +21°C° 0 mm 3 mps 749 mmHg 66%
17:00 +20°C° 0.2 mm 3 mps 749 mmHg 73%
18:00 +19°C° 0.2 mm 2 mps 749 mmHg 81%
19:00 +18°C° 0.2 mm 2 mps 748 mmHg 88%
20:00 +17°C° 0 mm 3 mps 748 mmHg 87%
21:00 +17°C° 0 mm 3 mps 747 mmHg 87%
22:00 +17°C° 0 mm 3 mps 747 mmHg 86%
23:00 +17°C° 0.3 mm 4 mps 747 mmHg 87%

Pasado mañana, 6 Agosto, Viernes

Tiempo Temperatura Precipitaciones Viento Presión Humedad
00:00 +17°C° 0.3 mm 4 mps 746 mmHg 88%
01:00 +17°C° 0.3 mm 4 mps 746 mmHg 89%
02:00 +15°C° 1.8 mm 4 mps 746 mmHg 91%
03:00 +15°C° 1.8 mm 5 mps 745 mmHg 93%
04:00 +14°C° 1.8 mm 5 mps 745 mmHg 94%
05:00 +14°C° 0.5 mm 4 mps 745 mmHg 94%
06:00 +14°C° 0.5 mm 4 mps 745 mmHg 94%
07:00 +14°C° 0.5 mm 3 mps 745 mmHg 94%
08:00 +14°C° 0.2 mm 4 mps 745 mmHg 93%
09:00 +14°C° 0.2 mm 4 mps 745 mmHg 93%
10:00 +14°C° 0.2 mm 4 mps 745 mmHg 92%
11:00 +14°C° 0.2 mm 4 mps 746 mmHg 92%
12:00 +14°C° 0.2 mm 4 mps 746 mmHg 92%
13:00 +14°C° 0.2 mm 3 mps 746 mmHg 92%
14:00 +14°C° 0.2 mm 3 mps 746 mmHg 93%
15:00 +14°C° 0.2 mm 3 mps 746 mmHg 94%
16:00 +14°C° 0.2 mm 3 mps 746 mmHg 95%
17:00 +14°C° 0.3 mm 3 mps 747 mmHg 95%
18:00 +14°C° 0.3 mm 3 mps 747 mmHg 96%
19:00 +14°C° 0.3 mm 3 mps 747 mmHg 96%
20:00 +14°C° 0.4 mm 3 mps 747 mmHg 97%
21:00 +14°C° 0.4 mm 3 mps 747 mmHg 97%
22:00 +15°C° 0.4 mm 2 mps 748 mmHg 97%
23:00 +15°C° 0.1 mm 2 mps 748 mmHg 97%

7 Agosto, Sábado

Tiempo Temperatura Precipitaciones Viento Presión Humedad
00:00 +15°C° 0.1 mm 2 mps 748 mmHg 97%
01:00 +15°C° 0.1 mm 2 mps 748 mmHg 96%
02:00 +15°C° 0 mm 2 mps 748 mmHg 96%
03:00 +15°C° 0 mm 2 mps 748 mmHg 95%
04:00 +14°C° 0 mm 2 mps 749 mmHg 95%
05:00 +15°C° 0 mm 2 mps 749 mmHg 91%
06:00 +16°C° 0 mm 3 mps 749 mmHg 86%
07:00 +17°C° 0 mm 3 mps 749 mmHg 82%
08:00 +18°C° 0 mm 3 mps 749 mmHg 74%
09:00 +20°C° 0 mm 2 mps 749 mmHg 66%
10:00 +23°C° 0 mm 2 mps 750 mmHg 57%
11:00 +24°C° 0 mm 2 mps 750 mmHg 53%
12:00 +25°C° 0 mm 2 mps 750 mmHg 48%
13:00 +26°C° 0 mm 3 mps 749 mmHg 43%
14:00 +26°C° 0 mm 2 mps 749 mmHg 45%
15:00 +26°C° 0 mm 2 mps 749 mmHg 47%
16:00 +27°C° 0 mm 2 mps 749 mmHg 49%
17:00 +25°C° 0 mm 2 mps 749 mmHg 53%
18:00 +24°C° 0 mm 2 mps 749 mmHg 58%
19:00 +23°C° 0 mm 2 mps 750 mmHg 62%
20:00 +23°C° 0 mm 2 mps 750 mmHg 66%
21:00 +21°C° 0 mm 3 mps 750 mmHg 70%
22:00 +20°C° 0 mm 3 mps 750 mmHg 73%
23:00 +19°C° 0 mm 3 mps 750 mmHg 75%

8 Agosto, Domingo

Tiempo Temperatura Precipitaciones Viento Presión Humedad
00:00 +19°C° 0 mm 3 mps 750 mmHg 76%
01:00 +19°C° 0 mm 3 mps 749 mmHg 77%
02:00 +19°C° 0 mm 4 mps 749 mmHg 76%
03:00 +19°C° 0 mm 4 mps 749 mmHg 76%
04:00 +19°C° 0 mm 5 mps 749 mmHg 75%
05:00 +19°C° 0 mm 4 mps 749 mmHg 74%
06:00 +20°C° 0 mm 4 mps 749 mmHg 73%
07:00 +20°C° 0 mm 3 mps 749 mmHg 73%
08:00 +21°C° 0 mm 4 mps 750 mmHg 71%
09:00 +22°C° 0 mm 4 mps 750 mmHg 70%
10:00 +23°C° 0 mm 5 mps 751 mmHg 69%
11:00 +23°C° 0 mm 5 mps 751 mmHg 66%
12:00 +25°C° 0 mm 5 mps 751 mmHg 63%
13:00 +26°C° 0 mm 4 mps 752 mmHg 60%
14:00 +26°C° 0 mm 4 mps 752 mmHg 60%
15:00 +25°C° 0 mm 4 mps 753 mmHg 60%
16:00 +25°C° 0 mm 3 mps 753 mmHg 60%
17:00 +24°C° 0 mm 3 mps 753 mmHg 63%
18:00 +23°C° 0 mm 2 mps 753 mmHg 66%
19:00 +22°C° 0 mm 1 mps 754 mmHg 68%
20:00 +22°C° 0 mm 1 mps 754 mmHg 68%
21:00 +21°C° 0 mm 1 mps 754 mmHg 68%
22:00 +21°C° 0 mm 1 mps 755 mmHg 68%
23:00 +21°C° 0 mm 1 mps 755 mmHg 69%

9 Agosto, Lunes

Tiempo Temperatura Precipitaciones Viento Presión Humedad
00:00 +19°C° 0 mm 2 mps 755 mmHg 70%
01:00 +19°C° 0 mm 2 mps 755 mmHg 71%
02:00 +19°C° 0 mm 2 mps 755 mmHg 71%
03:00 +18°C° 0 mm 2 mps 755 mmHg 72%
04:00 +18°C° 0 mm 2 mps 756 mmHg 72%
05:00 +19°C° 0 mm 2 mps 756 mmHg 68%
06:00 +20°C° 0 mm 2 mps 756 mmHg 64%
07:00 +22°C° 0 mm 1 mps 756 mmHg 60%
08:00 +24°C° 0 mm 2 mps 756 mmHg 55%
09:00 +25°C° 0 mm 2 mps 756 mmHg 51%
10:00 +27°C° 0 mm 2 mps 757 mmHg 46%
11:00 +27°C° 0 mm 2 mps 756 mmHg 44%
12:00 +28°C° 0 mm 2 mps 756 mmHg 43%
13:00 +29°C° 0 mm 2 mps 756 mmHg 41%
14:00 +28°C° 0 mm 2 mps 756 mmHg 45%
15:00 +27°C° 0 mm 2 mps 756 mmHg 49%
16:00 +26°C° 0 mm 1 mps 756 mmHg 53%
17:00 +25°C° 0 mm 1 mps 756 mmHg 56%
18:00 +24°C° 0 mm 1 mps 756 mmHg 59%
19:00 +23°C° 0 mm 1 mps 756 mmHg 62%
20:00 +23°C° 0.1 mm 1 mps 755 mmHg 64%
21:00 +22°C° 0.1 mm 1 mps 755 mmHg 66%
22:00 +21°C° 0.1 mm 1 mps 755 mmHg 69%
23:00 +21°C° 0.1 mm 1 mps 755 mmHg 72%
Mostrar más

Necesitamos Su Consentimiento

Meteoprog y nuestros Proveedores de Servicios pueden almacenar y acceder a sus datos personales como cookies, identificadores de dispositivo u otras tecnologías similares de su dispositivo y procesar dichos datos para personalizar contenido y anuncios, además de ofrecer funciones de redes sociales y analizar el tráfico.

  • Almacenar y/o acceder a información en su dispositivo

    Se puede almacenar o acceder a cookies, identificadores de dispositivo u otra información de su dispositivo para los fines anteriormente indicados.

  • Anuncios y contenido personalizados, medición de anuncios y contenido, percepciones del público, y desarrollo de productos

    Los anuncios y el contenido pueden personalizarse en base a su perfil. Se pueden añadir más datos para personalizar mejor los anuncios y contenidos. Se puede medir el rendimiento de los anuncios y contenidos. Se puede obtener la percepción sobre el público que ha visto los anuncios y contenidos. Dichos datos pueden usarse para desarrollar o mejorar la experiencia del usuario, sistemas y software.

Al hacer clic en ‘Estoy De Acuerdo’ usted permitirá el uso de las cookies, identificadores de dispositivo, balizas web u otras tecnologías similares indicadas. Su configuración puede cambiarse desde el navegador de su dispositivo.

Para ciertos fines, los intereses legítimos pueden ser considerados por encima del consentimiento. Puede leer más sobre ello en nuestra Política de Privacidad y Cookies.